Campo, CA

1:47 PM PST on December 05, 2019 (GMT -0800)
Campo

Weather History for KCZZ - June, 2019

Change the Weather History Date:

Tuesday, June 11, 2019

  Actual Average Record
Temperature  
Mean Temperature 79 °F 65 °F  
Max Temperature 102 °F 86 °F 102 °F (2019)
Min Temperature 55 °F 44 °F 33 °F (1964)
Degree Days  
Heating Degree Days 0 2  
Month to date heating degree days 17 31  
Since 1 June heating degree days 17 31  
Since 1 July heating degree days 3032 2958  
Cooling Degree Days 14 2  
Month to date cooling degree days 42 22  
Year to date cooling degree days 44 52  
Since 1 June cooling degree days 42 22  
Growing Degree Days 30 (Base 50)    
Moisture  
Dew Point 48 °F    
Average Humidity 35    
Maximum Humidity 57    
Minimum Humidity 12    
Precipitation  
Precipitation 0.00 in 0.00 in 0.10 in (1969)
Month to date precipitation 0.00 0.04  
Year to date precipitation 12.74 10.08  
Sea Level Pressure  
Sea Level Pressure 29.94 in    
Wind  
Wind Speed 6 mph (NE)    
Max Wind Speed 17 mph    
Max Gust Speed 22 mph    
T = Trace of Precipitation, MM = Missing Value Source: NWS Daily Summary

Daily Weather History Graph

Daily Weather History Graph

Search for Another Location

Airport or City:

Astronomy

Jun. 11, 2019 Rise Set
Actual Time 5:37 AM PDT 7:53 PM PDT
Civil Twilight 5:09 AM PDT 8:22 PM PDT
Nautical Twilight 4:34 AM PDT 8:56 PM PDT
Astronomical Twilight 3:56 AM PDT 9:34 PM PDT
Moon 2:19 PM PDT (6/11) 2:00 AM PDT (6/11)
Length of Visible Light 15h 12m
Length of Day
14h 15m
Waxing Gibbous, 67% of the Moon is Illuminated
Jun 11
Waxing Gibbous
Jun 17
Full
Jun 25
Last Quarter
Jul 2
New
Jul 9
First Quarter

Hourly Weather History & Observations

Time (PDT) Temp. Heat Index Dew Point Humidity Pressure Visibility Wind Dir Wind Speed Gust Speed Precip Events Conditions
12:52 AM 62.1 °F - 44.1 °F 52% 29.98 in - NE 5.8 mph - N/A   Unknown
1:52 AM 59.0 °F - 44.1 °F 58% 29.97 in - NE 6.9 mph - N/A   Unknown
2:52 AM 60.1 °F - 43.0 °F 53% 29.96 in - ENE 6.9 mph - N/A   Unknown
3:52 AM 60.1 °F - 43.0 °F 53% 29.97 in - ENE 6.9 mph - N/A   Unknown
4:52 AM 61.0 °F - 43.0 °F 52% 29.98 in - NE 5.8 mph - N/A   Unknown
5:52 AM 60.1 °F - 43.0 °F 53% 29.97 in - NE 5.8 mph - N/A   Unknown
6:52 AM 64.9 °F - 46.0 °F 50% 29.98 in - NE 4.6 mph - N/A   Unknown
7:52 AM 79.0 °F - 51.1 °F 38% 29.97 in - Calm Calm - N/A   Unknown
8:52 AM 87.1 °F - 51.1 °F 29% 29.96 in - Calm Calm - N/A   Unknown
9:52 AM 96.1 °F - 46.0 °F 18% 29.94 in - Variable 3.5 mph - N/A   Unknown
10:52 AM 97.0 °F - 39.0 °F 13% 29.94 in - Variable 3.5 mph 16.1 mph N/A   Unknown
11:52 AM 98.1 °F - 39.9 °F 13% 29.94 in - East 10.4 mph 17.3 mph N/A   Unknown
12:52 PM 98.1 °F - 42.1 °F 15% 29.93 in - Variable 6.9 mph - N/A   Unknown
1:52 PM 100.0 °F - 39.9 °F 13% 29.91 in - SE 8.1 mph - N/A   Unknown
2:52 PM 99.0 °F - 46.9 °F 17% 29.89 in - West 10.4 mph 21.9 mph N/A   Unknown
3:52 PM 98.1 °F 95.7 °F 53.1 °F 22% 29.89 in - WNW 13.8 mph - N/A   Unknown
4:52 PM 95.0 °F 92.7 °F 54.0 °F 25% 29.89 in - WNW 8.1 mph 18.4 mph N/A   Unknown
5:52 PM 93.0 °F 91.4 °F 55.9 °F 29% 29.89 in - West 8.1 mph - N/A   Unknown
6:52 PM 84.9 °F 83.7 °F 55.9 °F 37% 29.91 in - SW 8.1 mph - N/A   Unknown
7:52 PM 77.0 °F - 55.9 °F 48% 29.91 in - SSW 5.8 mph - N/A   Unknown
8:52 PM 73.0 °F - 55.9 °F 55% 29.92 in - SSW 4.6 mph - N/A   Unknown
9:52 PM 68.0 °F - 55.9 °F 65% 29.92 in - NNE 3.5 mph - N/A   Unknown
10:52 PM 68.0 °F - 55.9 °F 65% 29.92 in - NE 4.6 mph - N/A   Unknown
11:52 PM 64.9 °F - 55.0 °F 70% 29.92 in - NNE 5.8 mph - N/A   Unknown